TimeEDT,TemperatureF,Dew PointF,Humidity,Sea Level PressureIn,VisibilityMPH,Wind Direction,Wind SpeedMPH,Gust SpeedMPH,PrecipitationIn,Events,Conditions,WindDirDegrees,DateUTC
12:56 AM,72.0,69.1,91,30.15,10.0,Calm,Calm,-,N/A,,Clear,0,2013-08-27 04:56:00
1:22 AM,71.1,70.0,96,30.14,1.8,Calm,Calm,-,N/A,,Clear,0,2013-08-27 05:22:00
1:35 AM,72.0,70.0,93,30.14,3.0,Calm,Calm,-,N/A,,Clear,0,2013-08-27 05:35:00
1:56 AM,72.0,69.1,91,30.14,10.0,NNW,3.5,-,N/A,,Clear,340,2013-08-27 05:56:00
2:56 AM,72.0,69.1,91,30.12,10.0,Calm,Calm,-,N/A,,Scattered Clouds,0,2013-08-27 06:56:00
3:56 AM,71.1,69.1,93,30.11,10.0,Calm,Calm,-,N/A,,Clear,0,2013-08-27 07:56:00
4:00 AM,71.1,68.0,90,30.10,1.2,Calm,Calm,-,N/A,,Partly Cloudy,0,2013-08-27 08:00:00
4:02 AM,71.1,68.0,90,30.10,0.8,North,3.5,-,N/A,,Mist,360,2013-08-27 08:02:00
4:07 AM,70.0,69.1,97,30.10,0.2,Calm,Calm,-,N/A,Fog,Fog,0,2013-08-27 08:07:00
4:17 AM,71.1,69.1,93,30.10,0.5,Calm,Calm,-,N/A,Fog,Fog,0,2013-08-27 08:17:00
4:30 AM,71.1,69.1,93,30.10,1.0,North,3.5,-,N/A,,Mist,10,2013-08-27 08:30:00
4:33 AM,70.0,69.1,97,30.10,2.0,North,3.5,-,N/A,,Scattered Clouds,360,2013-08-27 08:33:00
4:41 AM,71.1,69.1,93,30.10,10.0,North,3.5,-,N/A,,Partly Cloudy,360,2013-08-27 08:41:00
4:56 AM,71.1,69.1,93,30.10,9.0,North,4.6,-,N/A,,Clear,350,2013-08-27 08:56:00
5:56 AM,70.0,68.0,93,30.10,6.0,Calm,Calm,-,N/A,,Clear,0,2013-08-27 09:56:00
6:56 AM,69.1,66.9,93,30.11,5.0,North,3.5,-,N/A,Fog,Shallow Fog,10,2013-08-27 10:56:00
7:56 AM,71.1,69.1,93,30.12,10.0,Calm,Calm,-,N/A,,Scattered Clouds,0,2013-08-27 11:56:00
8:56 AM,75.0,70.0,84,30.12,10.0,North,3.5,-,N/A,,Scattered Clouds,10,2013-08-27 12:56:00
9:56 AM,79.0,70.0,74,30.11,10.0,Calm,Calm,-,N/A,,Scattered Clouds,0,2013-08-27 13:56:00
10:37 AM,81.0,68.0,65,30.11,10.0,Calm,Calm,-,N/A,,Mostly Cloudy,0,2013-08-27 14:37:00
10:56 AM,80.1,66.0,62,30.12,10.0,NW,4.6,-,N/A,,Mostly Cloudy,310,2013-08-27 14:56:00
11:56 AM,84.9,62.1,46,30.11,10.0,Variable,5.8,-,N/A,,Mostly Cloudy,0,2013-08-27 15:56:00
12:54 PM,86.0,62.6,45,30.09,10.0,North,6.9,-,N/A,,Mostly Cloudy,350,2013-08-27 16:54:00
12:56 PM,86.0,63.0,46,30.09,10.0,Variable,6.9,-,N/A,,Mostly Cloudy,0,2013-08-27 16:56:00
1:56 PM,86.0,60.1,41,30.08,10.0,Variable,4.6,-,N/A,,Mostly Cloudy,0,2013-08-27 17:56:00
2:56 PM,86.0,59.0,40,30.05,10.0,Calm,Calm,-,N/A,,Mostly Cloudy,0,2013-08-27 18:56:00
3:56 PM,88.0,59.0,37,30.04,10.0,Calm,Calm,-,N/A,,Mostly Cloudy,0,2013-08-27 19:56:00
4:56 PM,86.0,60.1,41,30.03,10.0,SW,3.5,-,N/A,,Mostly Cloudy,230,2013-08-27 20:56:00
5:56 PM,82.9,68.0,60,30.04,10.0,South,4.6,-,N/A,,Mostly Cloudy,190,2013-08-27 21:56:00
6:56 PM,82.0,68.0,62,30.04,10.0,SSW,3.5,-,N/A,,Mostly Cloudy,200,2013-08-27 22:56:00
7:56 PM,78.1,68.0,71,30.03,10.0,SSW,5.8,-,N/A,,Mostly Cloudy,200,2013-08-27 23:56:00
8:56 PM,75.9,68.0,76,30.04,10.0,SSW,4.6,-,N/A,,Mostly Cloudy,210,2013-08-28 00:56:00
9:56 PM,75.0,68.0,79,30.06,10.0,SSW,3.5,-,N/A,,Scattered Clouds,210,2013-08-28 01:56:00
10:56 PM,73.9,68.0,82,30.06,10.0,WSW,4.6,-,N/A,,Scattered Clouds,240,2013-08-28 02:56:00
11:56 PM,73.0,68.0,84,30.05,10.0,SW,3.5,-,N/A,,Clear,230,2013-08-28 03:56:00